STARLINK-34496

Last updated on Thu Jul 03 2025 00:02:07 GMT+0000 (Coordinated Universal Time)

1 64476U 25133E 25183.58335648 -.01059004 00000+0 -52499-2 0 9993 2 64476 53.1561 210.8368 0001009 50.8421 293.8807 15.83912053 2723
UTC large
Height (km)
Speed (km/s)
/
Latitude / Longitude
Inclination (degrees)
Orbital Period (minutes)
Azimuth
Elevation
Range (km)
Doppler Factor

Next 0 passes for location: London (51.5072 / 0.1276)

Sorry there are no passes over London.